レモン-パンスターズ彗星

P/2020 K9 ( Lemmon-PanSTARRS )

English version
Home page
Updated on September 11, 2021

---------------------------------------------------------------------

・ プロフィール

発見日 2020年5月22日、26日
発見光度 20.5等、19.5等
発見者 Mt. Lemmon Survey, Pan-STARRS 1 telescope (Haleakala)

・ 写真集

・ 軌道要素

Epoch 2021 Jan. 26.0 TT = JDT 2459240.5
T 2021 Feb. 11.80879 TT                                 Rudenko
q   2.8494218            (2000.0)            P               Q
n   0.11449428     Peri.  196.87496     +0.99293515     -0.07275178
a   4.2002988      Node   166.23952     +0.07441777     +0.99712323
e   0.3216145      Incl.   23.20900     -0.09242173     +0.02127091
P   8.61
From 125 observations 2020 May 22-Dec. 13, mean residual 0".6.

・ 光度変化

        m1 = 12.0 + 5 logΔ + 10.0 log r

---------------------------------------------------------------------

軌道要素はM.P.E.C. 2021-B143に掲載されたものです。
光度グラフはComet for Windowsで作成したものです。

---------------------------------------------------------------------

Copyright(C) Seiichi Yoshida (comet@aerith.net). All rights reserved.